This is the latest recevied weather packets stored in our database for station/object KD5BIG-13. If no packets are shown the sender has not sent any weather packets the latest 10 day(s).
| Time | Temp. | Humidity | Pressure | Rain* | Wind** | Luminosity | Snow |
|---|---|---|---|---|---|---|---|
| 1777847166 | 23.89° C | 45% | 1022.4 hPa | 0 mm | - | 57 W/m² | - |
| 1777846864 | 23.89° C | 45% | 1022.3 hPa | 0 mm | - | 60 W/m² | - |
| 1777846562 | 23.89° C | 42% | 1022.3 hPa | 0 mm | - | 63 W/m² | - |
| 1777846259 | 23.89° C | 42% | 1022.2 hPa | 0 mm | - | 65 W/m² | - |
| 1777845955 | 23.89° C | 43% | 1022.4 hPa | 0 mm | - | 68 W/m² | - |
| 1777845652 | 24.44° C | 41% | 1022.3 hPa | 0 mm | - | 71 W/m² | - |
| 1777845349 | 23.89° C | 41% | 1022.4 hPa | 0 mm | - | 112 W/m² | - |
| 1777845046 | 23.89° C | 41% | 1022.6 hPa | 0 mm | - | 76 W/m² | - |
| 1777844744 | 23.89° C | 40% | 1022.6 hPa | 0 mm | - | 84 W/m² | - |
| 1777844440 | 24.44° C | 40% | 1022.7 hPa | 0 mm | - | 97 W/m² | - |
| 1777844139 | 25° C | 43% | 1022.5 hPa | 0 mm | - | 91 W/m² | - |
| 1777843835 | 25° C | 41% | 1022.6 hPa | 0 mm | - | 72 W/m² | - |
| 1777843533 | 25° C | 40% | 1022.7 hPa | 0 mm | - | 101 W/m² | - |
| 1777843230 | 25.56° C | 43% | 1022.9 hPa | 0 mm | - | 92 W/m² | - |
| 1777842927 | 25° C | 38% | 1022.8 hPa | 0 mm | - | 600 W/m² | - |
| 1777842622 | 25° C | 39% | 1023.1 hPa | 0 mm | - | 634 W/m² | - |
| 1777842320 | 25° C | 42% | 1023.1 hPa | 0 mm | - | 662 W/m² | - |
| 1777842015 | 25° C | 40% | 1023.3 hPa | 0 mm | - | 695 W/m² | - |
| 1777841712 | 25° C | 43% | 1023.2 hPa | 0 mm | - | 719 W/m² | - |
| 1777841408 | 25.56° C | 40% | 1023.4 hPa | 0 mm | - | 733 W/m² | - |
| 1777841106 | 25.56° C | 40% | 1023.4 hPa | 0 mm | - | 751 W/m² | - |
| 1777840802 | 25.56° C | 42% | 1023.4 hPa | 0 mm | - | 786 W/m² | - |
| 1777840500 | 25° C | 42% | 1023.5 hPa | 0 mm | - | 829 W/m² | - |
| 1777840196 | 25° C | 39% | 1023.6 hPa | 0 mm | - | 817 W/m² | - |
| 1777839894 | 25° C | 38% | 1023.7 hPa | 0 mm | - | 840 W/m² | - |
* Rain latest hour (hover to see other rain measurements)
** Current wind speed in m/s (hover to see current wind gust speed)